Погода в Корекозеве

Россия / Калужская область     54°19′31″N   36°10′47″E
темп.,
°C
ветер,
м/с
пор.,
м/с
влажн.,
%
обл.,
%
осадки,
мм/ч
давл.,
гПа
погр.,
м
23 апреля, пт
пт2300:00+8ю4119036 0.1 1015278
03:00+7ю413905 0.1 1015321
06:00+7ю5139099 0.2 1015372
09:00+11ю6147330 0.5 1014778
12:00+15ю8126098 0.6 10121945
15:00+7зсз61093100 4.8 1014656
18:00+7сз2486100 3.3 1014512
21:00+6юв2293100 4.6 101375
24 апреля, сб
сб2400:00+5ююз2494100 0.3 1012167
03:00+5з2489100 2.6 1011240
06:00+3зсз3697100 0.4 1010394
09:00+6з357481 0.8 1009965
12:00+8з455388 0.4 10091727
15:00+8з4552100 1.3 10081661
18:00+5з5679100 1.3 1009721
21:00+4з5983100 2.2 1010365
25 апреля, вс
вс2500:00+2зсз6127885 0.1 1011510
03:000з4118729 0.1 1013378
06:000зюз410905 0.0 1013359
09:00+4зюз697116 0.0 1013938
12:00+7зюз81249100 0.3 10132283
15:00+5зюз71065100 0.4 10141311
18:00+6зюз585989 0.1 10121625
21:00+1зюз358452 0.1 101394
26 апреля, пн
пн2600:000зюз37825 0.0 1014150
03:00−1юз38865 0.0 1014180
06:00−1юз38855 0.0 1015238
09:00+4зюз35625 0.0 1014881
12:00+7з344399 0.1 10132060
15:00+8зюз2440100 0.1 10122236
18:00+7юз3556100 0.3 1011761
21:00+2зюз2278100 0.8 101125
27 апреля, вт
вт2700:00+2юз2383100 0.2 101058
03:00+1зюз2689100 0.2 1010206
06:00−1зюз2689100 0.0 1011184
09:00+4з46686 0.0 1011869
12:00+8з5752100 1.1 10112107
15:00+8з675294 2.7 10111724
18:00+7з476113 0.9 10121030
21:00+2зюз36805 1.0 101491